Regional Weather Roundup
Issued by NWS

Home | Current Version | Previous Version | Text Only | Print | Product List | Glossary Off
Versions: 1 2 3 4 5 6 7 8 9 10 11 12 13 14 15 16 17 18 19 20 21 22 23 24 25 26 27 28 29 30 31 32 33 34 35 36 37 38 39 40 41 42 43 44 45 46 47 48 49 50

000
ASUS43 KLMK 251302
RWRKY
KENTUCKY REGIONAL WEATHER ROUNDUP
NATIONAL WEATHER SERVICE LOUISVILLE KY
900 AM EDT SAT MAR 25 2017

NOTE "FAIR" INDICATES FEW OR NO CLOUDS BELOW 12,000 FEET
WITH NO SIGNIFICANT WEATHER AND/OR OBSTRUCTIONS TO VISIBILITY.

KYZ001>023-026-027-061>063-070>075-251400-
WESTERN AND SOUTH CENTRAL KENTUCKY

CITY           SKY/WX    TMP DP  RH WIND       PRES   REMARKS
PADUCAH        LGT RAIN  57  54  89 S5        29.98R FOG
HENDERSON      CLOUDY    59  52  77 SE8       30.01F
OWENSBORO      CLOUDY    62  54  74 S6        30.06R
HOPKINSVILLE   CLOUDY    66  53  62 S9G18     30.03S
BOWLING GREEN  CLOUDY    67  51  56 S12       30.08R
GLASGOW        NOT AVBL
$$

KYZ024-025-028>034-038-045-046-053-251400-
NORTH CENTRAL KENTUCKY

CITY           SKY/WX    TMP DP  RH WIND       PRES   REMARKS
LOUISVILLE/SDF CLOUDY    63  47  55 SE8       30.09R
LOUISVILLE/LOU MOSUNNY   63  49  60 SE9       30.10R
FORT KNOX      PTSUNNY   64  50  59 S15       30.08R
$$

KYZ035>037-039>044-047>052-055>060-089>105-251400-
NORTHEAST KENTUCKY

CITY           SKY/WX    TMP DP  RH WIND       PRES   REMARKS
LEXINGTON      SUNNY     61  47  59 S13       30.15S
COVINGTON      CLOUDY    60  49  66 S12       30.12S
FRANKFORT      MOSUNNY   60  47  61 SE10      30.12S
$$

KYZ054-064>069-076>088-106>120-251400-
SOUTHEAST KENTUCKY

CITY           SKY/WX    TMP DP  RH WIND       PRES   REMARKS
JACKSON        SUNNY     61  47  59 CALM      30.21R
LONDON         SUNNY     63  46  54 S9        30.19S
SOMERSET       NOT AVBL
MIDDLESBORO    MOSUNNY   54  49  82 CALM      30.24S
MONTICELLO     MOSUNNY   63  49  60 SE12      30.19R
$$




USA.gov is the U.S. government's official web portal to all federal, state and local government web resources and services.